TimeEDT,TemperatureF,Dew PointF,Humidity,Sea Level PressureIn,VisibilityMPH,Wind Direction,Wind SpeedMPH,Gust SpeedMPH,PrecipitationIn,Events,Conditions,WindDirDegrees,DateUTC
12:52 AM,43.0,39.9,89,30.03,10.0,Calm,Calm,-,N/A,,Clear,0,2012-10-18 04:52:00
1:52 AM,42.1,37.9,85,30.03,10.0,NNW,3.5,-,N/A,,Clear,330,2012-10-18 05:52:00
2:52 AM,39.9,37.9,93,30.04,10.0,Calm,Calm,-,N/A,,Clear,0,2012-10-18 06:52:00
3:52 AM,39.9,37.0,89,30.04,10.0,Calm,Calm,-,N/A,,Clear,0,2012-10-18 07:52:00
4:52 AM,37.9,36.0,93,30.04,10.0,Calm,Calm,-,N/A,,Clear,0,2012-10-18 08:52:00
5:52 AM,39.0,36.0,89,30.06,10.0,Calm,Calm,-,N/A,,Clear,0,2012-10-18 09:52:00
6:52 AM,37.9,36.0,93,30.08,10.0,Calm,Calm,-,N/A,,Clear,0,2012-10-18 10:52:00
7:52 AM,39.0,36.0,89,30.09,10.0,Calm,Calm,-,N/A,,Clear,0,2012-10-18 11:52:00
8:52 AM,45.0,39.9,82,30.11,10.0,Calm,Calm,-,N/A,,Clear,0,2012-10-18 12:52:00
9:52 AM,51.1,41.0,68,30.12,10.0,Calm,Calm,-,N/A,,Clear,0,2012-10-18 13:52:00
10:52 AM,57.9,44.1,60,30.11,10.0,SE,5.8,-,N/A,,Clear,140,2012-10-18 14:52:00
11:52 AM,61.0,44.1,54,30.09,10.0,SE,4.6,-,N/A,,Clear,130,2012-10-18 15:52:00
12:52 PM,64.0,37.9,38,30.09,10.0,SSE,11.5,-,N/A,,Clear,150,2012-10-18 16:52:00
1:52 PM,64.0,37.9,38,30.08,10.0,SE,5.8,-,N/A,,Clear,140,2012-10-18 17:52:00
2:52 PM,66.0,39.9,38,30.06,10.0,South,9.2,-,N/A,,Clear,170,2012-10-18 18:52:00
3:52 PM,66.0,39.9,38,30.06,10.0,South,6.9,-,N/A,,Clear,170,2012-10-18 19:52:00
4:52 PM,64.9,39.9,40,30.04,10.0,SE,9.2,-,N/A,,Clear,130,2012-10-18 20:52:00
5:52 PM,62.1,41.0,46,30.05,10.0,SE,5.8,-,N/A,,Clear,130,2012-10-18 21:52:00
6:52 PM,57.9,46.0,65,30.07,10.0,ESE,3.5,-,N/A,,Clear,120,2012-10-18 22:52:00
7:52 PM,51.1,46.9,86,30.11,10.0,Calm,Calm,-,N/A,,Clear,0,2012-10-18 23:52:00
8:52 PM,48.9,46.9,93,30.12,10.0,Calm,Calm,-,N/A,,Clear,0,2012-10-19 00:52:00
9:35 PM,48.2,44.6,87,30.13,10.0,Calm,Calm,-,N/A,,Mostly Cloudy,0,2012-10-19 01:35:00
9:52 PM,48.9,46.0,90,30.14,10.0,Calm,Calm,-,N/A,,Overcast,0,2012-10-19 01:52:00
10:52 PM,46.0,44.1,93,30.13,10.0,Calm,Calm,-,N/A,,Partly Cloudy,0,2012-10-19 02:52:00
11:35 PM,48.2,46.4,93,30.12,10.0,North,3.5,-,N/A,,Mostly Cloudy,350,2012-10-19 03:35:00
11:52 PM,48.0,46.0,93,30.11,10.0,Calm,Calm,-,N/A,,Overcast,0,2012-10-19 03:52:00